Location: Observatoire
(46.1952°N, 5.3391°E)
Time: 04:14:35
(UTC+01:00)

Altair - Pass Details

Date: 25 February 2026
Orbit: 1502 x 1682 km, 47.2° (Epoch: 7 March)

Event Time Altitude Azimuth Distance (km) Brightness Sun altitude
Rises 11:22:39 0° 287° (WNW) 4,725 9.7 31.3°
Reaches altitude 10° 11:27:14 10° 268° (W) 3,771 9.4 31.7°
Maximum altitude 11:32:26 16° 234° (SW) 3,337 9.6 32.0°
Drops below altitude 10° 11:37:44 10° 201° (SSW) 3,841 10.4 32.4°
Sets 11:42:32 0° 181° (S) 4,856 11.0 32.7°
